Wolf Creek Pass, CO

1:18 AM MDT on April 30, 2017 (GMT -0600)
Wolf Creek Pass

Weather History for KCPW - August, 2013

Change the Weather History Date:

Thursday, August 29, 2013

  Actual Average (KALS) Record (KALS)
Temperature  
Mean Temperature 52 °F -  
Max Temperature 59 °F 78 °F 87 °F (1990)
Min Temperature 44 °F 42 °F 32 °F (1956)
Degree Days  
Heating Degree Days 14    
Growing Degree Days 2 (Base 50)    
Moisture  
Dew Point 40 °F    
Average Humidity 70    
Maximum Humidity 87    
Minimum Humidity 42    
Precipitation  
Precipitation 0.01 in - - ()
Sea Level Pressure  
Sea Level Pressure 30.73 in    
Wind  
Wind Speed 10 mph (South)    
Max Wind Speed 15 mph    
Max Gust Speed 22 mph    
Visibility 10 miles    
Events Rain    
Averages and records for this station are not official NWS values.
T = Trace of Precipitation, MM = Missing Value Source: NWS Daily Summary

Daily Weather History Graph

Daily Weather History Graph

Search for Another Location

Airport or City:

Trip Planner

Search our weather history database for the weather conditions in past years. The results will help you decide how hot, cold, wet, or windy it might be!

Date:

Astronomy

Aug. 29, 2013 Rise Set
Actual Time 6:35 AM MDT 7:40 PM MDT
Civil Twilight 6:08 AM MDT 8:06 PM MDT
Nautical Twilight 5:36 AM MDT 8:38 PM MDT
Astronomical Twilight 5:03 AM MDT 9:11 PM MDT
Moon 12:32 AM MDT (8/29) 3:07 PM MDT (8/29)
Length of Visible Light 13h 58m
Length of Day
13h 04m
Last Quarter, 37% of the Moon is Illuminated
Aug 29
Last Quarter
Sep 5
New
Sep 12
First Quarter
Sep 19
Full
Sep 26
Last Quarter

Hourly Weather History & Observations

Time (MDT) Temp. Windchill Dew Point Humidity Pressure Visibility Wind Dir Wind Speed Gust Speed Precip Events Conditions
12:01 AM 50.0 °F - 37.4 °F 62% 30.72 in 10.0 mi SSW 9.2 mph - N/A   Clear
12:21 AM 50.0 °F - 37.4 °F 62% 30.72 in 10.0 mi SW 10.4 mph - N/A   Clear
12:41 AM 46.4 °F 40.4 °F 37.4 °F 71% 30.72 in 10.0 mi SW 13.8 mph - N/A   Clear
1:01 AM 46.4 °F 40.1 °F 41.0 °F 81% 30.72 in 10.0 mi SW 15.0 mph 21.9 mph N/A   Clear
1:21 AM 46.4 °F 40.1 °F 41.0 °F 81% 30.72 in 10.0 mi SW 15.0 mph 20.7 mph N/A   Clear
1:41 AM 44.6 °F 38.1 °F 41.0 °F 87% 30.72 in 10.0 mi SW 13.8 mph - N/A   Clear
2:01 AM 44.6 °F 38.1 °F 41.0 °F 87% 30.72 in 10.0 mi SW 13.8 mph - N/A   Clear
2:21 AM 44.6 °F 39.2 °F 41.0 °F 87% 30.72 in 10.0 mi SW 10.4 mph - N/A   Clear
2:41 AM 44.6 °F 38.4 °F 41.0 °F 87% 30.71 in 10.0 mi SW 12.7 mph - N/A   Clear
3:01 AM 44.6 °F 38.4 °F 41.0 °F 87% 30.71 in 10.0 mi SW 12.7 mph - N/A   Clear
3:21 AM 44.6 °F 38.4 °F 41.0 °F 87% 30.71 in 10.0 mi SW 12.7 mph - N/A   Clear
3:41 AM 44.6 °F 39.7 °F 41.0 °F 87% 30.71 in 10.0 mi SSW 9.2 mph - N/A   Clear
4:01 AM 44.6 °F 39.7 °F 41.0 °F 87% 30.71 in 10.0 mi SSW 9.2 mph - N/A   Clear
4:21 AM 44.6 °F 39.7 °F 41.0 °F 87% 30.71 in 10.0 mi SW 9.2 mph - N/A   Clear
4:41 AM 44.6 °F 38.8 °F 41.0 °F 87% 30.71 in 10.0 mi SW 11.5 mph - N/A   Clear
5:01 AM 46.4 °F 40.7 °F 41.0 °F 81% 30.71 in 10.0 mi SW 12.7 mph - N/A   Clear
5:21 AM 46.4 °F 41.5 °F 41.0 °F 81% 30.71 in 10.0 mi SW 10.4 mph - N/A   Clear
5:41 AM 46.4 °F 42.9 °F 39.2 °F 76% 30.71 in 10.0 mi WSW 6.9 mph - N/A   Clear
6:01 AM 46.4 °F - 39.2 °F 76% 30.70 in 10.0 mi Calm Calm - N/A   Clear
6:21 AM 46.4 °F - 39.2 °F 76% 30.71 in 10.0 mi Calm Calm - N/A   Clear
6:41 AM 48.2 °F - 37.4 °F 66% 30.71 in 10.0 mi NNE 4.6 mph - N/A   Clear
7:01 AM 50.0 °F - 37.4 °F 62% 30.72 in 10.0 mi NE 5.8 mph - N/A   Clear
7:21 AM 50.0 °F - 39.2 °F 66% 30.72 in 10.0 mi NE 5.8 mph - N/A   Clear
7:41 AM 51.8 °F - 39.2 °F 62% 30.73 in 10.0 mi NE 6.9 mph - N/A   Clear
8:01 AM 51.8 °F - 41.0 °F 67% 30.74 in 10.0 mi NE 8.1 mph - N/A   Clear
8:21 AM 53.6 °F - 41.0 °F 62% 30.74 in 10.0 mi NE 9.2 mph - N/A   Scattered Clouds
8:41 AM 53.6 °F - 41.0 °F 62% 30.74 in 10.0 mi NE 10.4 mph - N/A   Mostly Cloudy
9:01 AM 53.6 °F - 41.0 °F 62% 30.74 in 10.0 mi ENE 6.9 mph - N/A   Overcast
9:21 AM 53.6 °F - 41.0 °F 62% 30.75 in 10.0 mi NE 10.4 mph - N/A   Mostly Cloudy
9:41 AM 55.4 °F - 41.0 °F 58% 30.75 in 10.0 mi NE 11.5 mph - N/A   Scattered Clouds
10:01 AM 55.4 °F - 39.2 °F 54% 30.75 in 10.0 mi ENE 9.2 mph - N/A   Clear
10:21 AM 55.4 °F - 41.0 °F 58% 30.76 in 10.0 mi NE 6.9 mph - N/A   Clear
10:41 AM 59.0 °F - 41.0 °F 51% 30.76 in 10.0 mi ENE 10.4 mph - N/A   Clear
11:01 AM 57.2 °F - 39.2 °F 51% 30.76 in 10.0 mi ESE 6.9 mph - N/A   Clear
11:21 AM 59.0 °F - 35.6 °F 42% 30.76 in 10.0 mi NE 10.4 mph - N/A   Clear
11:41 AM 57.2 °F - 37.4 °F 48% 30.76 in 10.0 mi ENE 5.8 mph - N/A   Scattered Clouds
12:01 PM 55.4 °F - 41.0 °F 58% 30.76 in 10.0 mi Calm Calm - N/A   Mostly Cloudy
12:21 PM 55.4 °F - 42.8 °F 63% 30.76 in 10.0 mi WSW 5.8 mph - N/A   Overcast
12:37 PM 53.6 °F - 44.6 °F 72% 30.76 in 7.0 mi Calm Calm - 0.01 in Rain Light Rain